Location: *
(57.8420°S, 159.8600°W)
Time: 02:58:18
(UTC+00:00)

SeaSat 1 - Pass Details

Date: 18 May 2021
Orbit: 745 x 746 km, 108.0° (Epoch: 23 June)

Event Time Altitude Azimuth Distance (km) Brightness Sun altitude
Exits shadow 05:23:04 20° 161° (SSE) 1,718 4.1 -22.7°
Maximum altitude 05:23:16 20° 165° (SSE) 1,716 4.1 -22.8°
Drops below altitude 10° 05:26:49 10° 210° (SSW) 2,304 5.3 -23.2°
Sets 05:29:38 0° 226° (SW) 3,230 6.4 -23.6°
